Regional Weather Roundup
Issued by NWS Midland/Odessa, TX

Skip options and go directly to product.
Home | Oldest Version | Next Version | Current Version | All | Text Only | Save Text | Print | Product List | Glossary On

Skip product version selection by date and time.   
447
ASUS44 KMAF 241901
RWRMAF
MIDLAND AREA WEATHER ROUNDUP
NATIONAL WEATHER SERVICE MIDLAND TX
200 PM CDT FRI APR 24 2015

...IN SOUTHWEST TEXAS AND SOUTHEAST NEW MEXICO...

CITY           SKY/WX    TMP DP  RH WIND       PRES   REMARKS
ALPINE         CLOUDY    69  45  41 W21G30    29.98F
ANDREWS        FAIR      71  43  36 W10G25    29.85F
ARTESIA        SUNNY     73  30  20 W25G33    29.84F
BIG SPRING     PTSUNNY   79  58  48 SE15G21   29.82F
CARLSBAD       NOT AVBL
DRYDEN           N/A     85  58  39 SW16G22   29.79F
FORT STOCKTON  NOT AVBL
GUAD PASS      NOT AVBL
HOBBS          NOT AVBL
MARFA          PTSUNNY   68  46  45 SW15G22   29.98F
MIDLAND AIRPK  CLOUDY    75  56  53 W22G28    29.84F
MIDLAND INTL   NOT AVBL
ODESSA         NOT AVBL
PECOS          CLOUDY    78  44  29 W23G31    29.84F
PRESIDIO       FAIR      78  50  37 W6        29.87F
SEMINOLE       CLOUDY    74  42  31 SW16G22   29.84F
SNYDER         MOSUNNY   66  61  85 S13G24    29.82S
WINK           NOT AVBL
$$
...OTHER STATIONS IN TEXAS...

CITY           SKY/WX    TMP DP  RH WIND       PRES   REMARKS
ABILENE        NOT AVBL
AMARILLO       NOT AVBL
AUSTIN         NOT AVBL
BROWNSVILLE    NOT AVBL
CORPUS CHRISTI NOT AVBL
DALLAS FTW     NOT AVBL
DEL RIO        NOT AVBL
EL PASO        NOT AVBL
HOUSTON INT    NOT AVBL
LUBBOCK        NOT AVBL
SAN ANGELO     NOT AVBL
SAN ANTONIO    NOT AVBL
WACO           NOT AVBL
WICHITA FALLS  NOT AVBL
$$
...OTHER LOCATIONS IN NEW MEXICO...

CITY           SKY/WX    TMP DP  RH WIND       PRES   REMARKS
ALAMAGORDO     MOSUNNY   66  32  28 W9G23     29.92F
ALBUQUERQUE    CLOUDY    49  40  71 E8        29.93F
CANNON AFB     PTSUNNY   70  36  28 W30G52    29.76F
CLOVIS         MOSUNNY   70  36  28 SW31G44   29.75F
HOLLOMAN AFB   NOT AVBL
ROSWELL        NOT AVBL
RUIDOSO        MOSUNNY   55  28  35 W24G36    29.94S
SANTA FE       NOT AVBL
TRUTH OR CONSE PTSUNNY   62  29  28 S6        29.90F
TUCUMCARI      NOT AVBL
$$

USA.gov is the U.S. government's official web portal to all federal, state and local government web resources and services.